Location: Asheville, NC
(35.6000°N, 82.5500°W)
Time: 18:43:20
(UTC-04:00)

Vanguard 2 - Pass Details

Date: 15 March 2018
Orbit: 553 x 2939 km, 32.9° (Epoch: 20 June)

Event Time Altitude Azimuth Distance (km) Brightness Sun altitude
Rises 08:18:09 0° 185° (S) 4,564 11.5 6.7°
Reaches altitude 10° 08:22:24 10° 166° (SSE) 4,017 11.5 7.6°
Maximum altitude 08:28:55 17° 130° (SE) 4,034 12.4 8.9°
Drops below altitude 10° 08:37:00 10° 96° (E) 5,197 15.1 10.5°
Sets 08:43:47 0° 80° (E) 6,556 13.7 11.9°
